ARIANE 5 R/B, 42952

Orbit data source: Space-Track

ARIANE 5 R/B, 42952 is space debris in HEO originally from a launch on Fri, 29 Sep 2017 UTC launched from the French Guiana (FRGUI). Debris objects in space refer to the collection of defunct objects orbiting the Earth. Examples of debris include non-operational satellites, rocket bodies, and fragments generated from explosions, collisions, or faulty payload assembly.

Loading next visibility...
ARIANE 5 R/B details
Identifier
42952, 2017-059C
Orbit
HEO
Last TLE update12 hours ago
Origin
Flag of FRArianespace (FR)
ManufacturerArianeGroup
MissionSpacecraft
Bus & MotorESC-A, Unknown motor
Mass~5,000 kg wet, ~5,000 kg dry
Launch date (UTC)
2017-09-29 (7 years ago)
Launch vehicleUnknown
Launch site
French Guiana (FRGUI)
Object type
Payload
Rocket body
Debris
Shape & HBRCyl + 1 Nozzle, 7 m
Radar Cross Section41.627 m², Large (>1 m²)

Expand to show TLE details & history

TLE from 12 hours ago
0 ARIANE 5 R/B
1 42952U 17059C   24360.93133620  .00002387  00000-0  11700-2 0  9997
2 42952   5.8403 115.6639 7146726 249.5555  24.9830  2.43056794 61736
Epoch: 2024-12-25T22:21Z
Definitive object data (Epoch: 2024-12-25T22:21:07.447Z)
Latitude
Longitude45.05921°
Altitude8,791.701 km
Speed5.957 km/s
True Right ascension07h 41m 01s
True Declination0° 00' 00"
Sunlit
Object was in daylight at TLE epoch
Visualization TLE readout
Latitude4.67085°
Longitude97.95622°
Altitude29,662.002 km
Speed2.25 km/s
Apparent Right ascension11h 23m 51s
Apparent Declination-2° 05' 04"
Sunlit
Object is in daylight
Visualization observer readout
Local Sidereal Time09:59:33
Azimuth150.149° SSE
Elevation43.777°
Doppler factor1
Orbital elements
Apogee altitude33,697.361 km
Perigee altitude290.563 km
Semi-major axis23,372.099 km
Eccentricity0.7146726
Inclination5.8403°
RAAN115.6639°
Arg. of periapsis249.5555°
True anomaly110.25849°
Mean anomaly24.983°
Eccentric anomaly60.68808°
Mean motion0.60743 °/min
BSTAR0.00117
Orbital period592.66 mins
Loading maneuver chart data...
Loading historical data...
Loading historical data...
Loading historical data...
Loading historical data...
Loading historical data...
Loading historical data...
Loading historical data...
Other satellites on launch #59 in the year 2017 (2017-09-29 UTC)

ARIANE 5 R/B Visibility forecast

Observer location: undefined°, undefined

Span
Click to sort rows by Start time (UTC) header in descending order
Start Az.
Max El. time (UTC)
Max El. Az.
Max El.
End time (UTC)
End Az.
380 mins2024-12-26 10:38:20.369Z150.163° SSE2024-12-26 13:32:20.369Z177.57° S37.331°2024-12-26 16:58:20.369Z137.142° SSE
128 mins2024-12-27 08:30:20.369Z99.125° ESE2024-12-27 10:33:20.369Z106.341° ESE16.043°2024-12-27 10:38:20.369Z106.496° ESE
|